Regional Weather Roundup
Issued by NWS

Home | Current Version | Previous Version | Graphics & Text | Print | Product List | Glossary On
Versions: 1 2 3 4 5 6 7 8 9 10 11 12 13 14 15 16 17 18 19 20 21 22 23 24 25 26 27 28 29 30 31 32 33 34 35 36 37 38 39 40 41 42 43 44 45 46 47 48 49 50
000
ASUS43 KLOT 190308
RWRIL

ILLINOIS REGIONAL WEATHER ROUNDUP
NATIONAL WEATHER SERVICE CHICAGO/ROMEOVILLE IL
900 PM CST WED JAN 18 2017

NOTE: "FAIR" INDICATES FEW OR NO CLOUDS BELOW 12,000 FEET WITH NO
SIGNIFICANT WEATHER AND/OR OBSTRUCTIONS TO VISIBILITY.

* THESE STATIONS ARE NOT UNDER NWS QUALITY CONTROL. THEY ALSO MAY NOT
  REPORT WEATHER SUCH AS PRECIPITATION OR FOG.

ILZ001-002-007-009-015-016-024-190400-
NORTHWEST ILLINOIS

CITY           SKY/WX    TMP DP  RH WIND       PRES   REMARKS
MOLINE         CLEAR     29  26  89 SE5       30.04S FOG     WCI  24
STERLING*      CLEAR     32  31  96 SE5       30.04F FOG     WCI  27
SAVANNA*       FOG       30  29  99 CALM      30.03S VSB 1/2
$$

ILZ003-004-008-010-011-017-018-190400-
NORTH CENTRAL ILLINOIS

CITY           SKY/WX    TMP DP  RH WIND       PRES   REMARKS
ROCKFORD       CLOUDY    34  31  88 S9        30.05F FOG     WCI  27
FREEPORT*      MOCLDY    32  32  99 S6        30.04F FOG     WCI  27
ROCHELLE*      CLEAR     32  32  99 SE5       30.05F FOG     WCI  27
DE KALB*       CLOUDY    32  31  98 CALM      30.05F FOG
$$

ILZ005-006-012>014-019>023-190400-
NORTHEAST ILLINOIS

CITY           SKY/WX    TMP DP  RH WIND       PRES   REMARKS
CHICAGO-OHARE  CLOUDY    35  32  88 SW10      30.05F WCI  27
CHICAGO-MIDWAY CLOUDY    35  31  85 SW7       30.06F WCI  29
AURORA         CLOUDY    34  31  88 S3        30.06F FOG
LANSING*       CLOUDY    36  34  94 SW9       30.08F WCI  29
JOLIET*        CLEAR     34  33  96 CALM      30.07F
WAUKEGAN       CLOUDY    34  32  92 SW9       30.03F WCI  27
DUPAGE AIRPORT CLOUDY    35  31  85 SW10      30.05F WCI  27
KANKAKEE*      CLOUDY    34  32  93 CALM      30.10F FOG
WHEELING       CLOUDY    35  31  85 SW9       30.06F WCI  28
MORRIS*        CLEAR     31  30  95 S5        30.06F FOG     WCI  27
ROMEOVILLE*    CLOUDY    33  33 100 SW5       30.07F WCI  28
NORTHERLY ISL    N/A     36  31  82 SW9         N/A  WCI  29
$$

LMZ740>746-190400-
SOUTHERN LAKE MICHIGAN

STATION/POSITION SKY/WX   TEMP    WIND        PRES    VSBY  WAVE
                          AIR SEA DIR/SP/G                  HT/PER
                          (F)     (DEG/KT/KT) (MB)    (MI)  (FT/S)
HARRISON CRIB              36     210/ 16/ 18   N/A
BURNHAM HARBOR             36     230/  7/ 14   N/A
CALUMET HARBOR             36     210/  9/ 13 1017.8F
BURNS HARBOR               37     220/ 11/ 16 1019.3F
$$

ILZ025>027-034>036-040-047-049-050-058-095>099-190400-
WEST-CENTRAL ILLINOIS

CITY           SKY/WX    TMP DP  RH WIND       PRES   REMARKS
QUINCY         CLEAR     36  33  89 SE7       30.03F WCI  30
GALESBURG*     CLEAR     33  33 100 SE6       30.04S FOG     WCI  27
MACOMB*        CLEAR     32  32  99 CALM      30.08S FOG
JACKSONVILLE*  CLOUDY    33  32  94 SE6       30.07S WCI  28
PITTSFIELD*    CLOUDY    38  34  86 SE5       30.07S WCI  34
$$

ILZ028>032-037-038-041>044-048-051>054-059>061-190400-
CENTRAL ILLINOIS

CITY           SKY/WX    TMP DP  RH WIND       PRES   REMARKS
PONTIAC        CLOUDY    34  34 100 SE3       30.10R FOG
BLOOMINGTON    CLOUDY    31  31 100 S9        30.08F FOG     WCI  23
DECATUR        CLOUDY    35  35 100 SE6       30.09F WCI  30
PEORIA         CLEAR     33  32  96 S3        30.07S FOG
LACON*         CLOUDY    32  32 100 CALM      30.07R FOG
LINCOLN*       CLOUDY    32  32 100 CALM      30.09S FOG
SPRINGFIELD    CLOUDY    40  36  86 S9        30.08F
TAYLORVILLE    CLOUDY    37  35  90 SE6       30.09S WCI  33
$$

ILZ033-039-045-046-055>057-062-063-190400-
EAST-CENTRAL ILLINOIS

CITY           SKY/WX    TMP DP  RH WIND       PRES   REMARKS
CHAMPAIGN      CLOUDY    33  31  92 SE6       30.11S FOG     WCI  28
RANTOUL*       CLOUDY    35  34  97 S5        30.10F WCI  31
MATTOON        CLOUDY    36  34  92 S6        30.10S WCI  31
PARIS*         CLOUDY    37  35  94 SE6       30.14S WCI  32
$$

ILZ079-100>102-190400-
SOUTHWEST ILLINOIS

CITY           SKY/WX    TMP DP  RH WIND       PRES   REMARKS
ALTON          CLEAR     37  36  93 SE6       30.08F WCI  33
BELLEVILLE     CLOUDY    40  40  99 S5        30.08S
CAHOKIA*       CLOUDY    43  36  76 S8        30.09R
SPARTA*        MOCLDY    41  37  84 S3        30.11S
$$

ILZ064>066-069>071-074>076-080>082-084>086-088>090-092>094-190400-
SOUTH-CENTRAL ILLINOIS

CITY           SKY/WX    TMP DP  RH WIND       PRES   REMARKS
CARBONDALE     MOCLDY    42  39  89 CALM      30.11F
CAIRO*         CLOUDY    43  41  91 E3        30.10F
EFFINGHAM*     CLOUDY    37  37 100 E5        30.12F WCI  34
MARION         MOCLDY    43  39  87 CALM      30.11F
MT. VERNON     MOCLDY    41  37  86 S3        30.12F
CENTRALIA*     CLOUDY    41  38  89 SE3       30.10S
SALEM*         CLOUDY    42  37  82 SE3       30.11F
METROPOLIS*    CLOUDY    43  40  88 CALM      30.12S
$$

ILZ067-068-072-073-078-083-087-091-190400-
SOUTHEAST ILLINOIS

CITY           SKY/WX    TMP DP  RH WIND       PRES   REMARKS
LAWRENCEVILLE  CLOUDY    37  36  96 E5        30.14R WCI  33
FLORA*         CLOUDY    39  37  89 CALM      30.13F
FAIRFIELD*     CLOUDY    40  37  89 CALM      30.13R
HARRISBURG*    CLOUDY    42  40  93 CALM      30.14R
ROBINSON*      CLOUDY    37  35  91 CALM      30.16R
CARMI*         MOCLDY    39  37  95 SE3       30.13S
$$

ABBREVIATIONS USED IN REMARKS
   TC - TEMPERATURE IN CELSIUS
  WCI - WIND CHILL INDEX
   HX - HEAT INDEX
  VSB - VISIBILITY
$$





USA.gov is the U.S. government's official web portal to all federal, state and local government web resources and services.